This is the latest recevied weather packets stored in our database for station/object W8BUG. If no packets are shown the sender has not sent any weather packets the latest 1 day(s).
| Time | Temp. | Humidity | Pressure | Rain* | Wind** | Luminosity | Snow |
|---|---|---|---|---|---|---|---|
| 1778025372 | - | - | - | 0 mm | 1.79 m/s, 74° | - | - |
| 1778025069 | - | - | - | 0 mm | 0.45 m/s, 72° | - | - |
| 1778024765 | - | - | - | 0 mm | 1.34 m/s, 64° | - | - |
| 1778024462 | - | - | - | 0 mm | 1.79 m/s, 74° | - | - |
| 1778024160 | - | - | - | 0 mm | 0 m/s | - | - |
| 1778023857 | - | - | - | 0 mm | 0.89 m/s, 70° | - | - |
| 1778023555 | - | - | - | 0 mm | 0.45 m/s, 66° | - | - |
| 1778023252 | - | - | - | 0 mm | 2.68 m/s, 86° | - | - |
| 1778022948 | - | - | - | 0 mm | 1.79 m/s, 85° | - | - |
| 1778022648 | - | - | - | 0 mm | 1.34 m/s, 79° | - | - |
| 1778022344 | - | - | - | 0 mm | 0.89 m/s, 78° | - | - |
| 1778022041 | - | - | - | 0 mm | 1.34 m/s, 84° | - | - |
| 1778021738 | - | - | - | 0 mm | 1.34 m/s, 72° | - | - |
| 1778021434 | - | - | - | 0 mm | 0.89 m/s, 67° | - | - |
| 1778021131 | - | - | - | 0 mm | 0.89 m/s, 65° | - | - |
| 1778020828 | - | - | - | 0 mm | 0.89 m/s, 72° | - | - |
| 1778020525 | - | - | - | 0 mm | 2.68 m/s, 70° | - | - |
| 1778020221 | - | - | - | 0 mm | 1.34 m/s, 68° | - | - |
| 1778019918 | - | - | - | 0 mm | 0 m/s | - | - |
| 1778019614 | - | - | - | 0 mm | 0.45 m/s, 69° | - | - |
| 1778019311 | - | - | - | 0 mm | 0.45 m/s, 69° | - | - |
| 1778019008 | - | - | - | 0 mm | 1.34 m/s, 68° | - | - |
| 1778018705 | - | - | - | 0 mm | 0.89 m/s, 67° | - | - |
| 1778018403 | - | - | - | 0 mm | 0.45 m/s, 66° | - | - |
| 1778018101 | - | - | - | 0 mm | 0.45 m/s, 67° | - | - |
* Rain latest hour (hover to see other rain measurements)
** Current wind speed in m/s (hover to see current wind gust speed)